Bingham Lake, MN

9:16 PM CST on December 03, 2016 (GMT -0600)
Windom Municipal

Weather History for KMWM - March, 2014

Change the Weather History Date:

Saturday, March 22, 2014

  Actual Average Record
Temperature  
Mean Temperature 17 °F -  
Max Temperature 24 °F 43 °F 61 °F (1985)
Min Temperature 10 °F 24 °F -2 °F (1955)
Degree Days  
Heating Degree Days 48    
Moisture  
Dew Point 8 °F    
Average Humidity 67    
Maximum Humidity 85    
Minimum Humidity 53    
Precipitation  
Precipitation 0.00 in - - ()
Sea Level Pressure  
Sea Level Pressure 30.38 in    
Wind  
Wind Speed 22 mph (NNW)    
Max Wind Speed 30 mph    
Max Gust Speed 39 mph    
Visibility 10 miles    
Events      
Averages and records for this station are not official NWS values.
T = Trace of Precipitation, MM = Missing Value Source: NWS Daily Summary

Daily Weather History Graph

Daily Weather History Graph

Search for Another Location

Airport or City:

Trip Planner

Search our weather history database for the weather conditions in past years. The results will help you decide how hot, cold, wet, or windy it might be!

Date:

Astronomy

Mar. 22, 2014 Rise Set
Actual Time 7:19 AM CDT 7:35 PM CDT
Civil Twilight 6:51 AM CDT 8:04 PM CDT
Nautical Twilight 6:17 AM CDT 8:38 PM CDT
Astronomical Twilight 5:42 AM CDT 9:12 PM CDT
Moon 1:04 AM CDT (3/22) 10:54 AM CDT (3/22)
Length of Visible Light 13h 12m
Length of Day
12h 15m
Waning Gibbous, 65% of the Moon is Illuminated
Mar 22
Waning Gibbous
Mar 23
Last Quarter
Mar 30
New
Apr 7
First Quarter
Apr 15
Full

Hourly Weather History & Observations

Time (CDT) Temp. Windchill Dew Point Humidity Pressure Visibility Wind Dir Wind Speed Gust Speed Precip Events Conditions
12:12 AM 19.4 °F 1.4 °F 10.4 °F 68% 30.22 in 10.0 mi NW 26.5 mph 36.8 mph N/A   Clear
12:32 AM 17.6 °F -1.3 °F 10.4 °F 73% 30.22 in 10.0 mi NW 27.6 mph 35.7 mph N/A   Clear
12:53 AM 17.6 °F -1.3 °F 10.4 °F 73% 30.23 in 10.0 mi NW 27.6 mph 39.1 mph N/A   Clear
1:12 AM 17.6 °F -1.9 °F 10.4 °F 73% 30.23 in 10.0 mi NW 29.9 mph 35.7 mph N/A   Clear
1:32 AM 17.6 °F -1.3 °F 8.6 °F 68% 30.23 in 10.0 mi NW 27.6 mph 36.8 mph N/A   Clear
1:53 AM 15.8 °F -2.7 °F 10.4 °F 79% 30.24 in 10.0 mi NNW 24.2 mph 31.1 mph N/A   Clear
2:12 AM 15.8 °F -1.5 °F 10.4 °F 79% 30.25 in 10.0 mi NW 20.7 mph 29.9 mph N/A   Clear
2:32 AM 15.8 °F -4.1 °F 8.6 °F 73% 30.25 in 10.0 mi NW 28.8 mph 35.7 mph N/A   Clear
2:53 AM 15.8 °F -4.1 °F 10.4 °F 79% 30.26 in 10.0 mi NW 28.8 mph 34.5 mph N/A   Clear
3:12 AM 15.8 °F -3.4 °F 8.6 °F 73% 30.26 in 10.0 mi NW 26.5 mph 32.2 mph N/A   Clear
3:32 AM 15.8 °F -2.7 °F 10.4 °F 79% 30.26 in 10.0 mi NW 24.2 mph 33.4 mph N/A   Clear
3:52 AM 14.0 °F -6.5 °F 8.6 °F 79% 30.26 in 10.0 mi NNW 28.8 mph 34.5 mph N/A   Clear
4:12 AM 14.0 °F -5.8 °F 8.6 °F 79% 30.28 in 10.0 mi NW 26.5 mph 34.5 mph N/A   Clear
4:33 AM 12.2 °F -6.7 °F 6.8 °F 79% 30.28 in 10.0 mi NNW 21.9 mph 32.2 mph N/A   Clear
4:52 AM 12.2 °F -8.2 °F 6.8 °F 79% 30.29 in 10.0 mi NNW 26.5 mph 34.5 mph N/A   Clear
5:12 AM 12.2 °F -8.2 °F 5.0 °F 73% 30.30 in 10.0 mi NNW 26.5 mph 33.4 mph N/A   Clear
5:33 AM 12.2 °F -7.9 °F 6.8 °F 79% 30.32 in 10.0 mi NNW 25.3 mph - N/A   Clear
5:52 AM 12.2 °F -7.1 °F 6.8 °F 79% 30.33 in 10.0 mi NNW 23.0 mph 28.8 mph N/A   Clear
6:12 AM 12.2 °F -5.8 °F 5.0 °F 73% 30.33 in 10.0 mi NW 19.6 mph 29.9 mph N/A   Clear
6:33 AM 10.4 °F -9.9 °F 6.8 °F 85% 30.34 in 10.0 mi NW 24.2 mph 28.8 mph N/A   Clear
6:52 AM 10.4 °F -9.1 °F 3.2 °F 73% 30.34 in 10.0 mi NNW 21.9 mph 31.1 mph N/A   Clear
7:12 AM 10.4 °F -9.9 °F 3.2 °F 73% 30.36 in 10.0 mi NNW 24.2 mph 28.8 mph N/A   Clear
7:33 AM 10.4 °F -9.5 °F 3.2 °F 73% 30.36 in 10.0 mi NNW 23.0 mph 27.6 mph N/A   Clear
7:52 AM 10.4 °F -8.2 °F 5.0 °F 79% 30.37 in 10.0 mi NNW 19.6 mph 25.3 mph N/A   Clear
8:12 AM 10.4 °F -9.1 °F 5.0 °F 79% 30.38 in 10.0 mi NNW 21.9 mph 26.5 mph N/A   Clear
8:33 AM 12.2 °F -6.3 °F 5.0 °F 73% 30.38 in 10.0 mi NNW 20.7 mph 27.6 mph N/A   Clear
8:52 AM 12.2 °F -7.1 °F 5.0 °F 73% 30.38 in 10.0 mi NNW 23.0 mph 27.6 mph N/A   Clear
9:13 AM 12.2 °F -5.8 °F 3.2 °F 67% 30.39 in 10.0 mi NNW 19.6 mph 25.3 mph N/A   Clear
9:33 AM 14.0 °F -5.1 °F 3.2 °F 62% 30.40 in 10.0 mi NNW 24.2 mph 27.6 mph N/A   Clear
9:52 AM 14.0 °F -4.7 °F 3.2 °F 62% 30.41 in 10.0 mi NNW 23.0 mph 26.5 mph N/A   Clear
10:12 AM 15.8 °F -1.5 °F 3.2 °F 58% 30.42 in 10.0 mi NNW 20.7 mph 26.5 mph N/A   Clear
10:33 AM 15.8 °F -0.6 °F 3.2 °F 58% 30.42 in 10.0 mi North 18.4 mph 21.9 mph N/A   Clear
10:52 AM 17.6 °F 1.7 °F 5.0 °F 58% 30.42 in 10.0 mi NNW 18.4 mph 25.3 mph N/A   Clear
11:12 AM 17.6 °F 1.7 °F 5.0 °F 58% 30.42 in 10.0 mi NNW 18.4 mph 24.2 mph N/A   Clear
11:33 AM 17.6 °F 0.5 °F 3.2 °F 53% 30.43 in 10.0 mi NNW 21.9 mph 27.6 mph N/A   Clear
11:52 AM 19.4 °F 3.2 °F 5.0 °F 54% 30.43 in 10.0 mi NNW 20.7 mph 25.3 mph N/A   Clear
12:12 PM 19.4 °F 3.6 °F 6.8 °F 58% 30.43 in 10.0 mi NNW 19.6 mph 25.3 mph N/A   Clear
12:33 PM 19.4 °F 2.8 °F 6.8 °F 58% 30.43 in 10.0 mi NNW 21.9 mph 27.6 mph N/A   Clear
12:52 PM 19.4 °F 2.1 °F 6.8 °F 58% 30.43 in 10.0 mi NNW 24.2 mph 28.8 mph N/A   Clear
1:12 PM 21.2 °F 6.4 °F 6.8 °F 54% 30.43 in 10.0 mi North 18.4 mph 25.3 mph N/A   Scattered Clouds
1:32 PM 21.2 °F 5.6 °F 6.8 °F 54% 30.42 in 10.0 mi NNW 20.7 mph 27.6 mph N/A   Scattered Clouds
1:52 PM 21.2 °F 6.0 °F 8.6 °F 58% 30.42 in 10.0 mi NNW 19.6 mph 26.5 mph N/A   Scattered Clouds
2:13 PM 21.2 °F 6.8 °F 6.8 °F 54% 30.43 in 10.0 mi NNW 17.3 mph 26.5 mph N/A   Scattered Clouds
2:32 PM 21.2 °F 6.8 °F 8.6 °F 58% 30.43 in 10.0 mi NW 17.3 mph 27.6 mph N/A   Mostly Cloudy
2:52 PM 21.2 °F 7.3 °F 6.8 °F 54% 30.43 in 10.0 mi NNW 16.1 mph 24.2 mph N/A   Scattered Clouds
3:13 PM 21.2 °F 6.4 °F 8.6 °F 58% 30.42 in 10.0 mi NW 18.4 mph 24.2 mph N/A   Mostly Cloudy
3:32 PM 23.0 °F 8.7 °F 8.6 °F 54% 30.42 in 10.0 mi NNW 18.4 mph 23.0 mph N/A   Scattered Clouds
3:52 PM 21.2 °F 5.6 °F 10.4 °F 63% 30.42 in 10.0 mi NNW 20.7 mph 24.2 mph N/A   Scattered Clouds
4:13 PM 23.0 °F 9.2 °F 10.4 °F 59% 30.42 in 10.0 mi NNW 17.3 mph 23.0 mph N/A   Mostly Cloudy
4:32 PM 24.8 °F 11.9 °F 10.4 °F 54% 30.42 in 10.0 mi NW 16.1 mph 26.5 mph N/A   Mostly Cloudy
4:52 PM 23.0 °F 9.6 °F 10.4 °F 59% 30.42 in 10.0 mi NW 16.1 mph 20.7 mph N/A   Mostly Cloudy
5:13 PM 21.2 °F 8.9 °F 10.4 °F 63% 30.42 in 10.0 mi NNW 12.7 mph 23.0 mph N/A   Mostly Cloudy
5:32 PM 21.2 °F 7.3 °F 10.4 °F 63% 30.42 in 10.0 mi NW 16.1 mph 19.6 mph N/A   Scattered Clouds
5:52 PM 21.2 °F 7.3 °F 8.6 °F 58% 30.43 in 10.0 mi NNW 16.1 mph - N/A   Mostly Cloudy
6:13 PM 21.2 °F 6.8 °F 8.6 °F 58% 30.43 in 10.0 mi NNW 17.3 mph 20.7 mph N/A   Mostly Cloudy
6:32 PM 21.2 °F 6.8 °F 8.6 °F 58% 30.43 in 10.0 mi NW 17.3 mph - N/A   Mostly Cloudy
6:52 PM 21.2 °F 6.8 °F 8.6 °F 58% 30.43 in 10.0 mi NW 17.3 mph - N/A   Scattered Clouds
7:13 PM 19.4 °F 5.5 °F 8.6 °F 63% 30.43 in 10.0 mi NW 15.0 mph - N/A   Scattered Clouds
7:32 PM 19.4 °F 4.5 °F 8.6 °F 63% 30.44 in 10.0 mi NNW 17.3 mph - N/A   Scattered Clouds
7:52 PM 19.4 °F 7.2 °F 8.6 °F 63% 30.44 in 10.0 mi NNW 11.5 mph 18.4 mph N/A   Scattered Clouds
8:13 PM 19.4 °F 5.5 °F 8.6 °F 63% 30.44 in 10.0 mi NNW 15.0 mph - N/A   Clear
8:32 PM 17.6 °F 5.0 °F 8.6 °F 68% 30.45 in 10.0 mi NNW 11.5 mph - N/A   Clear
8:52 PM 17.6 °F 4.3 °F 10.4 °F 73% 30.46 in 10.0 mi North 12.7 mph - N/A   Clear
9:13 PM 17.6 °F 3.7 °F 10.4 °F 73% 30.46 in 10.0 mi North 13.8 mph - N/A   Clear
9:32 PM 17.6 °F 5.0 °F 10.4 °F 73% 30.47 in 10.0 mi North 11.5 mph - N/A   Clear
9:52 PM 15.8 °F 2.7 °F 8.6 °F 73% 30.47 in 10.0 mi North 11.5 mph - N/A   Clear
10:13 PM 15.8 °F 4.2 °F 8.6 °F 73% 30.48 in 10.0 mi North 9.2 mph - N/A   Clear
10:32 PM 15.8 °F 4.2 °F 8.6 °F 73% 30.48 in 10.0 mi North 9.2 mph - N/A   Clear
10:52 PM 15.8 °F 4.2 °F 8.6 °F 73% 30.48 in 10.0 mi NNW 9.2 mph - N/A   Clear
11:13 PM 14.0 °F 3.9 °F 8.6 °F 79% 30.49 in 10.0 mi NNW 6.9 mph - N/A   Clear
11:32 PM 14.0 °F 2.9 °F 8.6 °F 79% 30.49 in 10.0 mi NNW 8.1 mph - N/A   Clear
11:52 PM 12.2 °F 1.7 °F 8.6 °F 85% 30.49 in 10.0 mi NNW 6.9 mph - N/A   Clear